Location: San Gennaro Vesuviano
(40.8833°N, 14.5333°E)
Time: 17:47:11
(UTC+00:00)

Daily predictions for brighter satellites

Satellite Brightness Start Highest point End
(mag) Time Altitude Azimuth Time Altitude Azimuth Time Altitude Azimuth
Cosmos 1371 Rocket 4.2 18:59:51 10° SSW 19:05:01 79° WNW 19:10:14 10° NNE
Cosmos 2227 Rocket 4.5 19:00:54 10° NW 19:05:08 22° W 19:09:22 10° SSW
Cosmos 1420 Rocket 4.1 19:00:38 10° S 19:05:41 59° ESE 19:10:48 10° NNE
Cosmos 1190 Rocket 4.1 19:01:46 10° NNW 19:07:05 81° ENE 19:12:24 10° SSE
Lacrosse 5 rocket 2.8 19:07:19 10° SSE 19:09:15 14° ESE 19:11:10 10° E
Okean 2 3.7 19:05:25 10° SSE 19:09:20 48° E 19:13:17 10° NNE
Cosmos 1707 3.6 19:06:21 10° SSE 19:09:44 30° E 19:13:10 10° NNE
Okean 1 Rocket 3.7 19:07:21 10° N 19:11:28 40° ENE 19:15:36 10° SSE
Cosmos 220 Rocket 3.9 19:07:56 10° SSW 19:12:14 74° ESE 19:16:30 10° NNE
Resurs 1-3 3.6 19:10:58 10° SSE 19:15:21 80° ENE 19:19:45 10° N
Cosmos 1378 Rocket 3.5 19:13:00 10° S 19:17:18 73° E 19:21:40 10° NNE
USA 238 DEB 3.9 19:11:02 10° SW 19:17:32 75° NW 19:24:23 10° NNE
USA 238 3.9 19:11:09 10° SW 19:17:38 75° NW 19:24:28 10° NNE
SL-24 DEB 4.3 19:13:09 10° S 19:17:52 90° SSE 19:22:40 10° N
Cosmos 1605 Rocket 4.2 19:14:30 10° N 19:20:51 62° E 19:27:07 10° SSE
Aureole 2 Rocket 4.4 19:19:45 10° WNW 19:21:11 14° WSW 19:22:36 10° SW
BREEZE-M DEB (TANK) 2.0 19:21:21 10° SW 19:23:38 52° SE 19:26:41 10° ENE
Cosmos 1238 4.3 19:20:07 10° S 19:23:42 75° E 19:26:49 10° N
USA 186 4.3 19:22:52 10° SW 19:24:48 17° W 19:26:50 10° NW
Cosmos 2285 Rocket 4.0 19:18:48 10° S 19:25:13 77° ESE 19:31:40 10° NNE
CENTAUR R/B 2.9 19:20:12 10° SW 19:25:57 68° NW 19:32:51 10° NNE
SPOT 3 Rocket 3.9 19:20:57 10° SSE 19:25:57 52° ENE 19:30:58 10° N
Cosmos 2219 Rocket 4.1 19:27:02 10° ESE 19:27:52 10° E 19:28:42 10° E
Cosmos 1400 Rocket 4.0 19:25:48 10° NNW 19:29:26 40° W 19:33:03 10° SSW
Cosmos 1626 4.3 19:29:55 10° ESE 19:31:06 11° E 19:32:16 10° ENE
Cosmos 1953 4.1 19:29:17 10° NNE 19:32:12 19° ENE 19:34:41 12° ESE
NOSS 8 (A) 4.3 19:31:17 10° SSW 19:34:57 63° ESE 19:37:58 10° NE
ERS-2 4.2 19:34:25 10° N 19:37:39 31° WNW 19:40:53 10° SW
Ariane Rocket 3.5 19:34:25 10° S 19:39:27 61° WSW 19:44:31 10° NNW
Cosmos 676 Rocket 4.1 19:34:38 10° NNW 19:40:00 86° WSW 19:45:15 10° SSE
Cosmos 1954 Rocket 4.1 19:34:55 10° NNW 19:40:16 84° WSW 19:45:32 10° SSE
ATLAS 2A CENTAUR R/B 4.2 19:33:27 10° SW 19:44:48 20° S 19:48:54 13° SSE
BREEZE-M DEB (TANK) 4.4 19:41:39 10° NW 19:45:12 23° N 19:47:09 10° ENE
IGS 5A 3.5 19:42:52 10° SSE 19:47:01 85° WSW 19:51:13 10° NNW
Cosmos 292 Rocket 3.9 19:42:12 10° SSW 19:47:02 80° WNW 19:51:54 10° NNE
Cosmos 1025 Rocket 4.4 19:45:52 16° SE 19:48:06 23° E 19:51:31 10° NE
SL-16 R/B 2.4 19:43:32 10° SSW 19:49:12 79° WNW 19:54:54 10° NNE
KORONAS-FOTON 4.5 19:46:44 16° SSE 19:49:19 35° E 19:52:48 10° NNE
Cosmos 2360 Rocket 2.5 19:44:08 10° S 19:49:29 46° ESE 19:54:51 10° NE
Cosmos 2322 Rocket 2.2 19:45:39 10° SSW 19:51:20 85° ESE 19:57:05 10° NNE
CARTOSAT-1 4.4 19:50:28 17° SE 19:53:16 35° ENE 19:57:12 10° N
Resurs 01 Rocket 1.9 19:49:38 10° S 19:54:00 68° WSW 19:58:24 10° NNW
OBJECT-B 3.9 19:54:17 10° WSW 19:55:14 11° W 19:56:11 10° WNW
USA 245 4.1 19:52:52 17° SSE 19:56:26 59° ENE 20:01:56 10° N
Cosmos 1461 4.2 19:53:26 10° NNW 19:57:06 28° NE 19:59:45 15° E
USA 81 4.0 19:52:37 10° N 19:57:54 78° E 20:02:33 13° S
Cosmos 1975 Rocket 3.1 19:57:45 13° S 20:01:30 61° E 20:05:51 10° NNE
Cosmos 1110 Rocket 4.2 19:56:52 10° S 20:01:47 47° ESE 20:06:45 10° NNE
Meteor 1-16 Rocket 4.4 19:58:26 10° N 20:03:45 51° ENE 20:07:15 20° SE
JB-3 4.5 20:00:26 10° NNE 20:04:20 55° E 20:07:14 17° S
SPOT 5 3.8 20:02:18 19° SE 20:05:30 37° ENE 20:10:04 10° N
Cosmos 1674 2.7 20:03:31 19° S 20:06:02 59° E 20:09:42 10° NNE
Cosmos 1470 3.9 20:03:00 10° NNW 20:06:45 41° W 20:10:27 10° SSW
COSMOS 2428 4.0 20:06:24 18° ESE 20:07:58 20° E 20:12:02 10° NE
ATLAS CENTAUR R/B 3.6 20:06:03 10° N 20:09:04 18° NE 20:12:12 10° E
Cosmos 2237 4.2 20:07:11 10° SSW 20:12:53 90° WNW 20:18:37 10° NNE
Terra 3.0 20:10:29 19° ESE 20:12:56 30° ENE 20:17:03 10° N
Cosmos 1726 3.9 20:16:49 10° NNW 20:19:56 27° W 20:23:01 10° SSW
Lacrosse 5 2.3 20:17:08 10° NW 20:22:04 53° SW 20:24:51 24° SSE
Cosmos 1315 Rocket 4.4 20:18:53 10° NNW 20:22:36 33° W 20:26:15 10° SSW
Cosmos 1452 Rocket 4.3 20:19:39 10° SW 20:24:47 52° WNW 20:29:58 10° N
Cosmos 405 4.4 20:24:51 10° NNE 20:27:37 22° ENE 20:28:05 22° E
Cosmos 1844 Rocket 2.9 20:22:09 10° NNW 20:27:47 63° ENE 20:30:54 27° SE
SL-8 R/B 4.4 20:24:42 10° NW 20:29:23 50° NNE 20:33:01 16° E
ARIANE 5 R/B 2.6 20:29:11 28° SSE 20:31:30 89° E 20:36:01 10° NNW
Cosmos 2100 Rocket 4.0 20:25:46 10° N 20:32:10 86° E 20:36:23 23° S
Cosmos 1340 3.1 20:32:11 37° SE 20:32:54 41° E 20:36:28 10° NNE
ATLAS 3B R/B 2.6 20:30:42 10° SSW 20:37:04 59° ESE 20:43:37 10° NE
Cosmos 1850 Rocket 4.2 20:32:00 10° NNW 20:37:17 70° WSW 20:40:12 26° S
SPOT 1/Viking Rocket 4.2 20:33:46 17° S 20:37:31 50° W 20:42:32 10° NNW
Meteor 2-5 Rocket 4.2 20:36:28 29° SE 20:38:37 41° E 20:43:48 10° NNE
H-2A R/B 3.9 20:35:06 10° NNE 20:38:59 40° E 20:39:42 37° SE
Cosmos 1908 3.2 20:35:37 10° N 20:39:30 79° W 20:40:58 36° S
Geosat 3.9 20:37:26 30° SSE 20:39:57 88° ENE 20:45:01 10° NNW
FALCON 9 DEB 2.6 20:40:01 62° S 20:40:22 71° SE 20:43:28 10° NE
Cosmos 2263 Rocket 4.2 20:36:31 10° NW 20:40:39 21° W 20:44:46 10° SSW
Spot 2 Rocket 3.8 20:40:28 24° S 20:43:28 64° WSW 20:48:31 10° NNW
Cosmos 1544 Rocket 3.5 20:42:14 10° N 20:46:43 83° E 20:48:22 39° SSE
ERS-1 Rocket 2.9 20:44:30 31° SSE 20:46:58 88° WSW 20:52:02 10° NNW
Lacrosse 5 rocket 1.6 20:44:18 10° WSW 20:47:57 58° NW 20:51:31 10° NE
Cosmos 2333 4.1 20:43:44 15° SSW 20:48:31 79° ESE 20:54:15 10° NNE
Cosmos 1331 Rocket 4.2 20:43:20 10° SSW 20:48:33 72° WNW 20:53:50 10° NNE
FALCON 9 DEB 2.8 20:50:01 73° ENE 20:50:01 73° ENE 20:52:54 10° NE
Cosmos 2173 Rocket 4.2 20:43:46 10° N 20:50:09 74° W 20:54:11 24° S
Cosmos 1455 Rocket 3.7 20:47:11 10° NNW 20:51:31 50° W 20:53:47 25° SSW
Cosmos 2016 Rocket 3.9 20:47:10 10° N 20:53:17 78° E 20:56:17 32° SSE
Cosmos 2333 Rocket 2.1 20:55:53 21° SSW 20:59:47 81° ESE 21:05:32 10° NNE
BREEZE-M DEB (TANK) 2.7 20:57:56 10° W 21:00:21 48° NNW 21:04:56 10° NE
USA 215 3.2 20:55:35 10° NE 21:02:01 58° SE 21:08:26 10° SSW
Cosmos 1725 Rocket 3.9 20:59:14 10° N 21:05:27 83° E 21:08:12 36° SSE
Cosmos 1626 3.2 21:04:14 25° SW 21:05:51 40° WNW 21:09:22 10° N
Cosmos 1302 Rocket 3.9 21:04:49 31° SSW 21:07:25 85° ESE 21:12:41 10° NNE
Cosmos 1953 3.8 21:05:01 10° NNW 21:08:37 31° W 21:10:21 22° SW
SL-14 R/B 3.6 21:08:38 41° SSW 21:09:52 65° W 21:13:54 10° N
Cosmos 2219 Rocket 2.1 21:07:37 27° SSW 21:10:51 84° ESE 21:16:34 10° NNE
Meteor 2-10 Rocket 4.1 21:07:46 10° N 21:12:33 40° ENE 21:13:41 35° ESE
Cosmos 1844 3.8 21:09:11 10° NNW 21:14:42 67° WSW 21:16:41 40° S
Cosmos 1536 Rocket 3.7 21:15:05 41° SSW 21:16:32 71° W 21:21:01 10° N
Meteor 1-24 Rocket 3.5 21:21:06 45° S 21:22:49 82° E 21:28:16 10° NNE
DNEPR-1 R/B 3.5 21:21:46 10° NNW 21:26:00 76° ENE 21:26:37 62° ESE
Cosmos 2237 Rocket 3.0 21:27:21 33° ESE 21:27:26 33° ESE 21:32:24 10° NE
Cosmos 389 Rocket 3.6 21:27:37 10° N 21:30:14 35° NE 21:30:14 35° NE
Cosmos 2360 Rocket 4.2 21:28:58 10° WSW 21:33:40 27° NW 21:38:23 10° N
Cosmos 1461 4.2 21:32:34 10° NW 21:36:05 27° WSW 21:36:06 27° WSW
Cosmos 2228 3.1 21:32:18 10° N 21:36:42 63° E 21:36:56 62° E
Cosmos 1486 Rocket 4.0 21:39:03 10° NNW 21:44:16 66° ENE 21:45:12 55° ESE
Cosmos 1455 3.4 21:42:42 10° N 21:45:44 33° ENE 21:45:44 33° ENE
ATLAS CENTAUR R/B 1.6 21:43:55 10° NW 21:48:17 62° WSW 21:48:22 62° SW
Terra 3.2 21:49:22 25° WSW 21:50:37 28° W 21:54:44 10° NW
COSMOS 2428 3.2 21:48:21 24° SW 21:51:43 57° WNW 21:57:24 10° NNE
Cosmos 968 Rocket 3.3 21:47:38 10° NNW 21:52:45 77° WSW 21:53:28 64° S
Cosmos 1300 4.1 21:51:05 10° NNW 21:54:24 29° W 21:54:30 29° W
Cosmos 1992 Rocket 3.9 21:54:04 59° SSW 21:55:05 87° WNW 22:00:21 10° NNE
ATLAS CENTAUR R/B 3.1 21:59:32 48° ESE 21:59:42 48° ESE 22:09:07 10° NE
Cosmos 2278 Rocket 2.4 21:57:08 10° NNW 22:02:46 62° ENE 22:04:01 49° ESE
Cosmos 2058 Rocket 3.5 22:03:06 10° N 22:07:18 51° ENE 22:07:18 51° ENE
Cosmos 1346 Rocket 3.8 22:11:16 39° W 22:11:25 40° WNW 22:15:13 10° N
SL-8 R/B 4.4 22:07:20 10° WNW 22:10:57 41° WSW 22:10:57 41° WSW
GEOS 3 Rocket 3.6 22:11:18 62° SE 22:12:14 89° ENE 22:17:38 10° NW
Cosmos 967 Rocket 4.4 22:07:53 10° NW 22:14:14 74° WSW 22:15:34 56° S
Cosmos 1726 Rocket 3.6 22:10:32 10° N 22:14:53 76° WNW 22:14:53 76° WNW
NOSS 0 Rocket 4.0 22:16:43 41° SW 22:19:00 72° WNW 22:25:15 10° NNE
Cosmos 1891 Rocket 4.4 22:13:52 10° N 22:20:04 84° E 22:21:24 58° SSE
SL-4 R/B 3.1 22:22:18 35° NE 22:22:18 35° NE 22:24:34 10° NE
NOSS 3-1 (C) 4.4 22:25:09 26° E 22:25:09 26° E 22:29:04 10° NE
Cosmos 1513 Rocket 4.3 22:19:15 10° N 22:25:22 89° E 22:26:33 61° S
Lacrosse 5 rocket 4.4 22:26:21 10° NW 22:27:42 12° NNW 22:29:03 10° N
ATLAS 3B R/B 4.3 22:22:23 10° WSW 22:28:08 31° NW 22:34:03 10° NNE
Cosmos 1606 Rocket 4.4 22:25:08 10° NNW 22:29:16 40° W 22:29:16 40° W
Cosmos 1892 Rocket 4.0 22:29:33 54° W 22:29:33 54° W 22:33:55 10° N
Cosmos 1072 Rocket 4.5 22:25:32 10° N 22:31:58 82° W 22:33:20 58° S
ALOS 2 2.6 22:32:40 78° N 22:32:40 78° N 22:36:48 10° NNW
SJ 16-02 3.4 22:30:16 10° NNE 22:33:25 19° ENE 22:34:22 18° ENE
Cosmos 1441 Rocket 3.9 22:38:21 52° N 22:38:21 52° N 22:41:20 10° N
Cosmos 1980 4.0 22:35:59 44° WSW 22:37:34 61° WNW 22:43:13 10° NNE
Cosmos 1703 3.9 22:39:40 55° N 22:39:40 55° N 22:42:51 10° N
Spot 4 4.4 22:39:09 46° W 22:39:09 46° W 22:43:44 10° NNW
Meteor 2-1 Rocket 4.0 22:36:05 10° N 22:41:37 82° W 22:42:13 71° SSW
Nimbus 7 Rocket 4.4 22:35:47 10° NNE 22:41:51 77° ESE 22:42:52 62° SSE
Cosmos 1943 Rocket 3.8 22:37:42 10° N 22:42:16 26° NE 22:45:01 18° E
Cosmos 1503 Rocket 4.1 22:38:19 10° NNW 22:43:38 64° WSW 22:43:52 63° WSW
USA 215 4.2 22:38:44 10° NE 22:44:54 46° NNW 22:51:03 10° WSW
USA 32 4.3 22:45:42 10° N 22:50:52 56° E 22:51:17 55° ESE
Cosmos 1328 4.5 22:52:30 51° N 22:52:30 51° N 22:55:29 10° N
Cosmos 1626 Rocket 3.7 22:59:58 72° NNW 22:59:58 72° NNW 23:04:04 10° N
Cosmos 1464 Rocket 4.4 22:54:37 10° NNW 23:00:46 53° W 23:02:03 46° SW
Cosmos 1867 4.5 22:57:20 10° NW 23:01:49 35° WSW 23:01:49 35° WSW
Cosmos 1607 3.9 22:57:54 10° NW 23:04:16 69° WSW 23:05:04 62° SSW
Thor Agena Rocket 3.4 22:59:03 10° NNE 23:04:20 84° ESE 23:04:38 79° SSE
Cosmos 1602 Rocket 3.7 23:06:53 74° NNE 23:06:53 74° NNE 23:11:00 10° N
SL-16 R/B 2.0 23:06:18 71° SSE 23:06:46 77° ESE 23:12:27 10° NNE
PSLV R/B 3.9 23:06:04 10° NNE 23:09:53 60° ENE 23:09:53 60° ENE
Cosmos 1634 Rocket 4.3 23:04:34 10° N 23:10:50 61° E 23:12:25 47° SE
Cosmos 2237 Rocket 3.4 23:09:08 26° W 23:11:24 35° WNW 23:16:32 10° N
Cosmos 1758 Rocket 3.9 23:14:18 57° ENE 23:14:18 57° ENE 23:18:16 10° NNE
USA 267 3.1 23:14:47 47° SE 23:16:54 81° SW 23:23:29 10° NW
Meteor 1-4 Rocket 4.1 23:14:44 10° NNW 23:16:45 31° NNW 23:16:45 31° NNW
Cosmos 2369 Rocket 3.8 23:19:50 10° N 23:24:51 30° NE 23:28:37 15° ESE
NOSS 2-3 (C) 3.8 23:31:45 61° ENE 23:31:45 61° ENE 23:35:39 10° NE
Cosmos 1777 Rocket 4.2 23:28:18 10° NNW 23:33:25 55° WSW 23:33:25 55° WSW
Cosmos-2242 3.2 23:29:13 10° N 23:33:23 69° NE 23:33:23 69° NE
Cosmos 1408 3.8 23:37:17 37° NE 23:37:17 37° NE 23:39:55 10° NNE
Cosmos 2297 3.5 23:40:08 10° NNW 23:45:47 79° WSW 23:46:30 67° S
Cosmos 1812 Rocket 4.3 23:41:41 10° NNW 23:45:17 43° WNW 23:45:17 43° WNW
Cosmos 2278 Rocket 4.0 23:42:34 10° WNW 23:45:51 18° W 23:45:51 18° W
Meteor 1-27 4.0 23:44:01 10° N 23:49:37 85° W 23:50:26 66° S
Cosmos 724 4.2 23:43:49 10° NW 23:49:58 73° WSW 23:50:57 60° S
Meteor 2-13 Rocket 4.5 23:50:34 53° SSE 23:52:02 72° E 23:58:11 10° NNE
